Starlink 31668

operational
NORAD ID: 59580 Int'l Des: 2024-076 Owner: SPXS Country: US Constellation: starlink
LEOCIRCULAR

关于 Starlink 31668

正在加载描述...

实时位置

正在加载3D地球...

即将过境

高度历史

Altitude vs Time

uPlot chart will show altitude changes over time

两行轨道根数

1 59580U 24076S 25354.34721456 .00002881 00000-0 11411-3 0 9997
2 59580 43.0012 96.6171 0001507 258.1112 101.9570 15.27598283 94378
Epoch: Dec 20, 2025 • Age: 9 hours

当前状态

高度 491.4 km
速度 7.62 km/s
星下点 -33.41°S, 28.27°W
发射日期 Apr 23, 2024
运行时间 1.6 years
类型 internet

技术详情

分类 Payload
质量 730.00 kg
干质量 700.00 kg
总质量 730.00 kg
长度 0.30 m
直径 4.10 m
跨度 29.00 m
形状 Box + pan
制造商 SPXS
平台类型 Starlink V2M
阶段状态 In Orbit
所有者/国家 SPXS/US

大型星座

Loading constellations...